Simultaneous Nadir Overpasses (SNOs) Predictions

Prediction of SNOs between GOES-16 and NOAA-19 Satellite Orbit:

Table of predicted SNOs for the next 14.0 days since TLE Epoch: 3/12/2022
Index Date Time (GOES-16) GOES-16 Lat,Lon NOAA-19 Lat,Lon Distance(km) Time Diff (sec)
1 03/13/2022 00:22:45 -0.01, -75.21 0.57, -72.67 289.71 80
2 03/15/2022 12:45:57 0.03, -75.25 0.57, -77.53 260.93 80
3 03/16/2022 12:31:29 0.03, -75.25 -0.14, -74.66 68.80 80
4 03/17/2022 12:19:41 0.02, -75.26 -0.79, -71.77 398.57 80
5 03/19/2022 00:55:00 -0.03, -75.26 -1.02, -79.59 494.36 80
6 03/20/2022 00:43:12 -0.03, -75.27 -0.36, -76.71 164.28 80
7 03/21/2022 00:28:43 -0.03, -75.28 0.30, -73.83 165.86 80
8 03/22/2022 00:16:55 -0.02, -75.29 0.96, -70.94 496.00 80
9 03/23/2022 12:51:55 0.03, -75.34 0.84, -78.69 383.09 80
10 03/24/2022 12:40:07 0.03, -75.35 0.12, -75.82 52.95 80
11 03/25/2022 12:25:39 0.02, -75.36 -0.54, -72.93 277.31 80
